Location: Chuathbaluk
(61.5726°N, 159.2454°W)
Time: 22:26:14
(UTC+00:00)

Transit 2A - Pass Details

Date: 05 December 2020
Orbit: 598 x 960 km, 66.7° (Epoch: 20 January)

Event Time Altitude Azimuth Distance (km) Brightness Sun altitude
Rises 03:45:50 0° 219° (SW) 3,598 10.5 -14.8°
Reaches altitude 10° 03:48:27 10° 218° (SW) 2,626 9.6 -15.1°
Maximum altitude 03:54:32 68° 137° (SE) 946 6.3 -15.8°
Enters shadow 03:57:57 25° 60° (ENE) 1,653 7.1 -16.2°
Drops below altitude 10° 04:00:08 10° 56° (NE) 2,424 - -16.4°
Sets 04:02:28 0° 54° (NE) 3,303 - -16.7°
